Regional Weather Roundup
Issued by NWS

Home | Current Version | Previous Version | Text Only | Print | Product List | Glossary Off
Versions: 1 2 3 4 5 6 7 8 9 10 11 12 13 14 15 16 17 18 19 20 21 22 23 24 25 26 27 28 29 30 31 32 33 34 35 36 37 38 39 40 41 42 43 44 45 46 47 48 49 50

000
ASUS43 KLMK 220002
RWRKY
KENTUCKY REGIONAL WEATHER ROUNDUP
NATIONAL WEATHER SERVICE LOUISVILLE KY
800 PM EDT SAT APR 21 2018

NOTE "FAIR" INDICATES FEW OR NO CLOUDS BELOW 12,000 FEET
WITH NO SIGNIFICANT WEATHER AND/OR OBSTRUCTIONS TO VISIBILITY.

KYZ001>023-026-027-061>063-070>075-220100-
WESTERN AND SOUTH CENTRAL KENTUCKY

CITY           SKY/WX    TMP DP  RH WIND       PRES   REMARKS
PADUCAH        FAIR      69  38  32 E6        30.16R
HENDERSON      NOT AVBL
OWENSBORO      FAIR      68  34  28 E10       30.20R
HOPKINSVILLE   FAIR      68  37  32 E9        30.16R
BOWLING GREEN  FAIR      67  39  35 NE7       30.18F
GLASGOW        NOT AVBL
$$

KYZ024-025-028>034-038-045-046-053-220100-
NORTH CENTRAL KENTUCKY

CITY           SKY/WX    TMP DP  RH WIND       PRES   REMARKS
LOUISVILLE/SDF CLOUDY    67  26  21 NE8       30.23F
LOUISVILLE/LOU FAIR      65  31  28 NE10      30.24F
FORT KNOX      FAIR      65  32  29 NE10      30.22F
$$

KYZ035>037-039>044-047>052-055>060-089>105-220100-
NORTHEAST KENTUCKY

CITY           SKY/WX    TMP DP  RH WIND       PRES   REMARKS
LEXINGTON      FAIR      58  34  40 NE7       30.26F
COVINGTON      CLOUDY    58  24  27 NE14      30.30S
FRANKFORT      FAIR      62  27  26 E6        30.25S
$$

KYZ054-064>069-076>088-106>120-220100-
SOUTHEAST KENTUCKY

CITY           SKY/WX    TMP DP  RH WIND       PRES   REMARKS
JACKSON        FAIR      63  21  20 VRB3      30.24F
LONDON         FAIR      68  26  20 NE3       30.22S
SOMERSET       NOT AVBL
MIDDLESBORO    FAIR      67  36  32 CALM      30.22S
MONTICELLO     FAIR      62  44  51 N10       30.23S
$$




USA.gov is the U.S. government's official web portal to all federal, state and local government web resources and services.